Home   Weather   Abeokuta   Past weeks

Flag for Nigeria Past Weather in Abeokuta, Nigeria — Yesterday and Last 2 Weeks

82 °F

Thunderstorms. Passing clouds.

Feels Like: 89 °F
Forecast: 75 / 89 °F
Wind: 5 mph from South

Location: Lagos / Ikeja

Current Time: Oct 21, 2016 at 7:26:51 PM

Latest Report: Oct 21, 2016 at 7:00 PM

Visibility: N/A

Pressure: 29.92 "Hg

Humidity: 79%

Dew Point: 75 °F

Location of AbeokutaLocation

Past Weather in Abeokuta — Graph


Abeokuta Temperature Yesterday

Maximum temperature yesterday: 90 °F (at 3:00 PM)
Minimum temperature yesterday: 77 °F (at 3:00 AM)
Average temperature yesterday: 82 °F

High & Low Weather Summary for the Past Weeks

High91 °F (Oct 15, 3:00 PM)100% (Oct 7, 4:00 PM)30.04 "Hg (Oct 7, 4:00 PM)
Low72 °F (Oct 9, 9:00 AM)59% (Oct 18, 3:00 PM)29.80 "Hg (Oct 6, 6:00 PM)
Average81 °F86%29.91 "Hg
* Reported Oct 6 6:00 PM — Oct 21 6:00 PM, Abeokuta, Weather by CustomWeather, © 2016

Note: Actual official high and low records may vary slightly from our data, if they occured in-between our weather recording intervals... More about our weather records


Abeokuta Weather History for the Previous 24 Hours

Scroll right to see more
Time TempWeatherWind HumidityBarometerVisibility
6:00 PM
Fri, Oct 21
86 °FPartly sunny.8 mph75%29.86 "HgN/A
5:00 PM86 °FPartly sunny.5 mph75%29.86 "HgN/A
4:00 PM90 °FPartly sunny.10 mph67%29.86 "HgN/A
3:00 PM90 °FPartly sunny.5 mph67%29.86 "HgN/A
2:00 PM88 °FPartly sunny.7 mph70%29.89 "HgN/A
1:00 PM88 °FPartly sunny.8 mph70%29.92 "HgN/A
12:00 PM88 °FPartly sunny.6 mph70%29.95 "HgN/A
11:00 AM88 °FPartly sunny.3 mph70%29.95 "HgN/A
10:00 AM86 °FPartly sunny.2 mph75%29.98 "HgN/A
9:00 AM82 °FScattered clouds.No wind84%29.95 "Hg5 mi
8:00 AM79 °FScattered clouds.No wind94%29.95 "Hg4 mi
7:00 AM77 °FScattered clouds.No wind94%29.92 "Hg4 mi
6:00 AM77 °FPassing clouds.No wind94%29.92 "Hg4 mi
5:00 AM77 °FPassing clouds.2 mph94%29.89 "Hg5 mi
4:00 AM77 °FPassing clouds.No wind94%29.89 "Hg5 mi
3:00 AM77 °FPassing clouds.No wind94%29.89 "Hg5 mi
2:00 AM79 °FPassing clouds.2 mph89%29.92 "Hg5 mi
1:00 AM79 °FPassing clouds.2 mph89%29.92 "Hg5 mi
10:00 PM
Thu, Oct 20
79 °FPassing clouds.2 mph84%29.92 "HgN/A
9:00 PM81 °FPassing clouds.2 mph79%29.89 "HgN/A
8:00 PM81 °FPassing clouds.3 mph79%29.86 "HgN/A
7:00 PM82 °FPassing clouds.3 mph74%29.86 "HgN/A
Weather by CustomWeather, © 2016

See weather overviewHow to use our weather pages